Content
SEND FEEDBACK

Daily
Averages
Monthly
Summary
Canada

VANCOUVER, BRITISH COLUMBIA


Home > North America > Canada > British Columbia
Elevation: 2 meters     Latitude: 49 11N     Longitude: 123 10W

WEATHER
 
SELECT A DAY
Number of Records: 252,242;   Date Range: 5/15/97 - 9/30/14
 
SHARE

PRINT THIS DATA

[ ← Previous Day ]
WEATHER ALMANAC - 26 APRIL, 2013
[ Next Day → ]
[ °F ]   °C
Weather ElementAverageHighLow
Temperature11 °C14 °C (3:35 pm)8 °C (2:35 am)
Dewpoint6.3 °C8 °C (11:35 am)3 °C (4:15 pm)
Humidity74.7 %93 % (2:35 am)48 % (4:15 pm)
Barometer1022 hPa1023.7 hPa (11:15 am)1019.6 hPa (12:35 am)
Wind Speed16.4 km/h24.1 km/h (1:15 am)
Wind Gust35.2 km/h (9:35 am)
Weather ElementAverage
Visibility15.3 km
Wind DirectionS (184.5 °)

Weather ElementTotal
Precipitation---
Heating Degree Days7.3 (Base 18.3)
Growing Degree Days1 (Base 10)
Averaged from 66 records on 26 April, 2013
WEATHER CONDITIONS BREAKOUT
WIND DIRECTION BREAKOUT
WEATHER BY HOUR - 26 APRIL, 2013
[ °F ]   °C
Local TimeTemperatureDewpointHumidityBarometerVisibilityWind DirectionWind SpeedGust SpeedPrecipitationEventsConditions
12:35 AM9 °C7 °C87 %1019.6 hPa16.1 kmSouth (180°)14.8 km/h25.9 km/hClear
12:55 AM9 °C7 °C87 %1019.6 hPa16.1 kmSouth (190°)16.7 km/h25.9 km/hClear
1:15 AM9 °C7 °C87 %1020.3 hPa16.1 kmSouth (190°)24.1 km/h33.3 km/hClear
1:55 AM9 °C6 °C82 %1020.3 hPa16.1 kmSouth (190°)14.8 km/hClear
2:15 AM9 °C7 °C87 %1020.3 hPa16.1 kmSouth (190°)20.4 km/hClear
2:35 AM8 °C7 °C93 %1020.3 hPa16.1 kmSSW (200°)20.4 km/hClear
2:55 AM8 °C7 °C93 %1020.3 hPa16.1 kmSSW (200°)18.5 km/h25.9 km/hClear
3:15 AM8 °C7 °C93 %1020.7 hPa16.1 kmSouth (190°)16.7 km/h25.9 km/hClear
3:35 AM8 °C7 °C93 %1020.7 hPa16.1 kmSouth (190°)16.7 km/hClear
3:55 AM8 °C6 °C87 %1020.7 hPa16.1 kmSouth (190°)22.2 km/hClear
4:15 AM8 °C6 °C87 %1021 hPa16.1 kmSSW (200°)20.4 km/h27.8 km/hClear
4:55 AM8 °C7 °C93 %1021.3 hPa16.1 kmSouth (190°)16.7 km/h27.8 km/hClear
5:15 AM8 °C7 °C93 %1021.3 hPa16.1 kmSouth (190°)20.4 km/h25.9 km/hClear
5:35 AM8 °C7 °C93 %1021.7 hPa16.1 kmSouth (180°)14.8 km/h25.9 km/hClear
5:55 AM8 °C6 °C87 %1021.7 hPa16.1 kmSouth (190°)16.7 km/h25.9 km/hClear
6:15 AM8 °C7 °C93 %1021.7 hPa12.9 kmSouth (170°)13 km/hClear
6:35 AM8 °C7 °C93 %1021.7 hPa12.9 kmSouth (190°)18.5 km/hClear
6:55 AM8 °C7 °C93 %1022 hPa12.9 kmSouth (190°)20.4 km/h27.8 km/hClear
7:15 AM8 °C7 °C93 %1021.7 hPa14.5 kmSSW (200°)24.1 km/hClear
7:35 AM9 °C7 °C87 %1021.7 hPa14.5 kmSouth (190°)20.4 km/h33.3 km/hClear
7:55 AM9 °C7 °C87 %1022 hPa14.5 kmSouth (190°)16.7 km/h33.3 km/hClear
8:15 AM10 °C7 °C82 %1022.4 hPa14.5 kmSouth (180°)16.7 km/h29.6 km/hClear
8:35 AM10 °C7 °C82 %1022 hPa12.9 kmSouth (190°)24.1 km/h33.3 km/hClear
9:15 AM10 °C7 °C82 %1022.4 hPa14.5 kmSouth (180°)18.5 km/h27.8 km/hClear
9:35 AM10 °C7 °C82 %1022.7 hPa12.9 kmSouth (180°)22.2 km/h35.2 km/hClear
9:55 AM10 °C7 °C82 %1022.7 hPa12.9 kmSouth (170°)18.5 km/h29.6 km/hClear
10:15 AM10 °C7 °C82 %1022.7 hPa12.9 kmSouth (170°)18.5 km/h31.5 km/hClear
10:35 AM10 °C7 °C82 %1023 hPa12.9 kmSouth (170°)16.7 km/h31.5 km/hClear
10:55 AM10 °C7 °C82 %1023 hPa14.5 kmSouth (180°)22.2 km/h35.2 km/hClear
11:15 AM10 °C7 °C82 %1023.7 hPa14.5 kmSouth (180°)18.5 km/h33.3 km/hClear
11:35 AM10 °C8 °C87 %1023.4 hPa14.5 kmSouth (180°)20.4 km/h27.8 km/hClear
11:55 AM10 °C8 °C87 %1023.7 hPa12.9 kmSouth (190°)20.4 km/h29.6 km/hClear
12:15 PM12 °C8 °C77 %1023.4 hPa14.5 kmSouth (190°)20.4 km/h29.6 km/hClear
12:35 PM13 °C8 °C72 %1023.7 hPa16.1 kmSouth (190°)16.7 km/hClear
12:55 PM12 °C8 °C77 %1023.7 hPa14.5 kmSouth (190°)16.7 km/hClear
1:15 PM12 °C8 °C77 %1023.4 hPa16.1 kmSouth (190°)16.7 km/h25.9 km/hClear
1:35 PM12 °C8 °C77 %1023.4 hPa16.1 kmSouth (190°)14.8 km/hClear
1:55 PM12 °C8 °C77 %1023.4 hPa14.5 kmSouth (190°)22.2 km/h27.8 km/hClear
2:15 PM12 °C8 °C77 %1023.4 hPa14.5 kmSouth (190°)18.5 km/h25.9 km/hClear
2:35 PM13 °C8 °C72 %1023 hPa14.5 kmSouth (180°)11.1 km/h25.9 km/hClear
2:55 PM13 °C8 °C72 %1023 hPa16.1 kmSouth (190°)16.7 km/h27.8 km/hClear
3:15 PM13 °C5 °C58 %1023 hPa16.1 kmSouth (180°)18.5 km/hClear
3:35 PM14 °C4 °C51 %1022.7 hPa16.1 kmSouth (170°)13 km/h27.8 km/hClear
3:55 PM14 °C4 °C51 %1022.7 hPa16.1 kmSouth (180°)13 km/h27.8 km/hClear
4:15 PM14 °C3 °C48 %1022.4 hPa16.1 kmSouth (180°)16.7 km/hClear
4:35 PM14 °C3 °C48 %1022.4 hPa16.1 kmSouth (180°)14.8 km/hClear
5:15 PM14 °C4 °C51 %1022.4 hPa16.1 kmSouth (190°)13 km/hClear
5:35 PM14 °C4 °C51 %1022 hPa16.1 kmSSW (200°)13 km/hClear
5:55 PM14 °C5 °C55 %1022 hPa16.1 kmSSW (200°)14.8 km/hClear
6:15 PM14 °C5 °C55 %1022 hPa16.1 kmSSW (200°)14.8 km/hClear
6:35 PM14 °C5 °C55 %1022 hPa16.1 kmSSW (200°)16.7 km/hClear
6:55 PM14 °C5 °C55 %1022 hPa16.1 kmSouth (180°)13 km/hClear
7:15 PM14 °C5 °C55 %1021.3 hPa16.1 kmSouth (170°)11.1 km/hPartly Cloudy
7:55 PM13 °C5 °C58 %1021.3 hPa16.1 kmSouth (180°)13 km/hClear
8:15 PM13 °C5 °C58 %1021.3 hPa16.1 kmSouth (190°)13 km/hClear
8:35 PM13 °C5 °C58 %1021.7 hPa16.1 kmSSW (200°)9.3 km/hClear
8:55 PM13 °C5 °C58 %1021.7 hPa16.1 kmCalmClear
9:15 PM13 °C5 °C58 %1021.7 hPa16.1 kmSSW (200°)9.3 km/hClear
9:35 PM13 °C6 °C63 %1021.7 hPa16.1 kmSouth (190°)11.1 km/hClear
9:55 PM13 °C5 °C58 %1022 hPa16.1 kmSouth (190°)14.8 km/hClear
10:15 PM12 °C7 °C72 %1022 hPa16.1 kmSouth (190°)14.8 km/hClear
10:35 PM12 °C6 °C67 %1022 hPa16.1 kmSSW (200°)14.8 km/hClear
10:55 PM12 °C6 °C67 %1021.7 hPa16.1 kmSouth (180°)11.1 km/hClear
11:15 PM12 °C6 °C67 %1021.7 hPa16.1 kmSSW (200°)16.7 km/hClear
11:35 PM12 °C6 °C67 %1021.7 hPa16.1 kmSouth (190°)14.8 km/hClear
11:55 PM12 °C6 °C67 %1021.7 hPa16.1 kmSouth (180°)7.4 km/hClear
Hourly data recorded from CZBB, located 0 kilometers away from Vancouver, British Columbia







STORIES FROM OUR PARTNERS